owner,sensor,date,latitude,longitude,vertical_datum,wind_speed,wind_to_direction,wind_speed_of_gust,qcFlag 
COMPS,ioos:station:USF.COMPS:SHP:1,2019-12-01T00:54:00,30.0600,-84.2910,10.0,3.13,169.21,3.92,'11111222,11111222,11111222' 
COMPS,ioos:station:USF.COMPS:SHP:1,2019-12-01T01:54:00,30.0600,-84.2910,10.0,2.42,159.38,2.84,'11111222,11111222,11111222' 
COMPS,ioos:station:USF.COMPS:SHP:1,2019-12-01T02:54:00,30.0600,-84.2910,10.0,2.43,180.65,3.23,'11111222,11111222,11111222' 
COMPS,ioos:station:USF.COMPS:SHP:1,2019-12-01T03:54:00,30.0600,-84.2910,10.0,2.27,181.61,2.84,'11111222,11111222,11111222' 
COMPS,ioos:station:USF.COMPS:SHP:1,2019-12-01T04:54:00,30.0600,-84.2910,10.0,3.28,187.76,4.01,'11111222,11111222,11111222' 
COMPS,ioos:station:USF.COMPS:SHP:1,2019-12-01T05:54:00,30.0600,-84.2910,10.0,3.44,190.01,4.21,'11111222,11111222,11111222' 
COMPS,ioos:station:USF.COMPS:SHP:1,2019-12-01T06:54:00,30.0600,-84.2910,10.0,2.67,186.87,3.52,'11111222,11111222,11111222' 
COMPS,ioos:station:USF.COMPS:SHP:1,2019-12-01T07:54:00,30.0600,-84.2910,10.0,2.77,200.87,3.13,'11111222,11111222,11111222' 
COMPS,ioos:station:USF.COMPS:SHP:1,2019-12-01T08:54:00,30.0600,-84.2910,10.0,3.94,184.54,4.9,'11111222,11111222,11111222' 
COMPS,ioos:station:USF.COMPS:SHP:1,2019-12-01T09:54:00,30.0600,-84.2910,10.0,4.12,231.54,4.99,'11111222,11111222,11111222' 
COMPS,ioos:station:USF.COMPS:SHP:1,2019-12-01T10:54:00,30.0600,-84.2910,10.0,3.96,201.41,4.31,'11111222,11111222,11111222' 
COMPS,ioos:station:USF.COMPS:SHP:1,2019-12-01T11:54:00,30.0600,-84.2910,10.0,4.41,222.04,4.99,'11111222,11111222,11111222' 
COMPS,ioos:station:USF.COMPS:SHP:1,2019-12-01T12:54:00,30.0600,-84.2910,10.0,5.15,211.94,5.87,'11111222,11111222,11111222' 
COMPS,ioos:station:USF.COMPS:SHP:1,2019-12-01T13:54:00,30.0600,-84.2910,10.0,5.99,226.48,6.85,'11111222,11111222,11111222' 
COMPS,ioos:station:USF.COMPS:SHP:1,2019-12-01T14:54:00,30.0600,-84.2910,10.0,6.91,223.03,8.13,'11111222,11111222,11111222' 
COMPS,ioos:station:USF.COMPS:SHP:1,2019-12-01T15:54:00,30.0600,-84.2910,10.0,9.28,228.59,10.29,'11111222,11111222,11111222' 
COMPS,ioos:station:USF.COMPS:SHP:1,2019-12-01T16:54:00,30.0600,-84.2910,10.0,9.57,226.51,11.46,'11111222,11111222,11111222' 
COMPS,ioos:station:USF.COMPS:SHP:1,2019-12-01T17:54:00,30.0600,-84.2910,10.0,3.13,307.86,4.5,'11111222,11111222,11111222' 
COMPS,ioos:station:USF.COMPS:SHP:1,2019-12-01T18:54:00,30.0600,-84.2910,10.0,4.42,261.33,5.09,'11111222,11111222,11111222' 
COMPS,ioos:station:USF.COMPS:SHP:1,2019-12-01T19:54:00,30.0600,-84.2910,10.0,3.35,257.9,4.01,'11111222,11111222,11111222' 
COMPS,ioos:station:USF.COMPS:SHP:1,2019-12-01T20:54:00,30.0600,-84.2910,10.0,8.94,257.53,10.87,'11111222,11111222,11111222' 
COMPS,ioos:station:USF.COMPS:SHP:1,2019-12-01T21:54:00,30.0600,-84.2910,10.0,6.81,257.36,9.89,'11111222,11111222,11111222' 
COMPS,ioos:station:USF.COMPS:SHP:1,2019-12-01T22:54:00,30.0600,-84.2910,10.0,7.44,274.36,9.8,'11111222,11111222,11111222' 
COMPS,ioos:station:USF.COMPS:SHP:1,2019-12-01T23:54:00,30.0600,-84.2910,10.0,6.08,257.59,7.64,'11111222,11111222,11111222' 
COMPS,ioos:station:USF.COMPS:SHP:1,2019-12-02T00:54:00,30.0600,-84.2910,10.0,6.11,246.42,7.54,'11111222,11111222,11111222' 
COMPS,ioos:station:USF.COMPS:SHP:1,2019-12-02T01:54:00,30.0600,-84.2910,10.0,7.06,256.12,8.62,'11111222,11111222,11111222' 
COMPS,ioos:station:USF.COMPS:SHP:1,2019-12-02T02:54:00,30.0600,-84.2910,10.0,5.63,268.1,6.95,'11111222,11111222,11111222' 
COMPS,ioos:station:USF.COMPS:SHP:1,2019-12-02T03:54:00,30.0600,-84.2910,10.0,3.34,278.36,4.8,'11111222,11111222,11111222' 
COMPS,ioos:station:USF.COMPS:SHP:1,2019-12-02T04:54:00,30.0600,-84.2910,10.0,4.07,281.85,5.97,'11111222,11111222,11111222' 
COMPS,ioos:station:USF.COMPS:SHP:1,2019-12-02T05:54:00,30.0600,-84.2910,10.0,4.91,304.47,7.25,'11111222,11111222,11111222' 
COMPS,ioos:station:USF.COMPS:SHP:1,2019-12-02T06:54:00,30.0600,-84.2910,10.0,5.93,322.74,8.13,'11111222,11111222,11111222' 
COMPS,ioos:station:USF.COMPS:SHP:1,2019-12-02T07:54:00,30.0600,-84.2910,10.0,6.31,320.81,9.99,'11111222,11111222,11111222' 
COMPS,ioos:station:USF.COMPS:SHP:1,2019-12-02T08:54:00,30.0600,-84.2910,10.0,6.01,322.73,11.17,'11111222,11111222,11111222' 
COMPS,ioos:station:USF.COMPS:SHP:1,2019-12-02T09:54:00,30.0600,-84.2910,10.0,4.14,325.44,5.78,'11111222,11111222,11111222' 
COMPS,ioos:station:USF.COMPS:SHP:1,2019-12-02T10:54:00,30.0600,-84.2910,10.0,4.06,321.95,5.29,'11111222,11111222,11111222' 
COMPS,ioos:station:USF.COMPS:SHP:1,2019-12-02T11:54:00,30.0600,-84.2910,10.0,4.01,317.1,6.07,'11111222,11111222,11111222' 
COMPS,ioos:station:USF.COMPS:SHP:1,2019-12-02T12:54:00,30.0600,-84.2910,10.0,4.38,316.23,5.97,'11111222,11111222,11111222' 
COMPS,ioos:station:USF.COMPS:SHP:1,2019-12-02T13:54:00,30.0600,-84.2910,10.0,6.73,312.1,10.29,'11111222,11111222,11111222' 
COMPS,ioos:station:USF.COMPS:SHP:1,2019-12-02T14:54:00,30.0600,-84.2910,10.0,7.38,330.98,10.38,'11111222,11111222,11111222' 
COMPS,ioos:station:USF.COMPS:SHP:1,2019-12-02T15:54:00,30.0600,-84.2910,10.0,5.28,335.56,8.72,'11111222,11111222,11111222' 
COMPS,ioos:station:USF.COMPS:SHP:1,2019-12-02T16:54:00,30.0600,-84.2910,10.0,4.74,347.71,6.66,'11111222,11111222,11111222' 
COMPS,ioos:station:USF.COMPS:SHP:1,2019-12-02T17:54:00,30.0600,-84.2910,10.0,5.38,315.44,7.54,'11111222,11111222,11111222' 
COMPS,ioos:station:USF.COMPS:SHP:1,2019-12-02T18:54:00,30.0600,-84.2910,10.0,3.87,331.61,6.46,'11111222,11111222,11111222' 
COMPS,ioos:station:USF.COMPS:SHP:1,2019-12-02T19:54:00,30.0600,-84.2910,10.0,4.0,323.37,6.56,'11111222,11111222,11111222' 
COMPS,ioos:station:USF.COMPS:SHP:1,2019-12-02T20:54:00,30.0600,-84.2910,10.0,5.03,346.65,8.42,'11111222,11111222,11111222' 
COMPS,ioos:station:USF.COMPS:SHP:1,2019-12-02T21:54:00,30.0600,-84.2910,10.0,5.14,344.66,8.13,'11111222,11111222,11111222' 
COMPS,ioos:station:USF.COMPS:SHP:1,2019-12-02T22:54:00,30.0600,-84.2910,10.0,2.83,338.85,4.11,'11111222,11111222,11111222' 
COMPS,ioos:station:USF.COMPS:SHP:1,2019-12-02T23:54:00,30.0600,-84.2910,10.0,1.95,325.46,2.94,'11111222,11111222,11111222' 
COMPS,ioos:station:USF.COMPS:SHP:1,2019-12-03T00:54:00,30.0600,-84.2910,10.0,2.33,324.72,2.94,'11111222,11111222,11111222' 
COMPS,ioos:station:USF.COMPS:SHP:1,2019-12-03T01:54:00,30.0600,-84.2910,10.0,2.67,322.18,4.01,'11111222,11111222,11111222' 
COMPS,ioos:station:USF.COMPS:SHP:1,2019-12-03T02:54:00,30.0600,-84.2910,10.0,2.56,313.91,3.92,'11111222,11111222,11111222' 
COMPS,ioos:station:USF.COMPS:SHP:1,2019-12-03T03:54:00,30.0600,-84.2910,10.0,3.03,327.84,4.31,'11111222,11111222,11111222' 
COMPS,ioos:station:USF.COMPS:SHP:1,2019-12-03T04:54:00,30.0600,-84.2910,10.0,3.25,326.97,5.09,'11111222,11111222,11111222' 
COMPS,ioos:station:USF.COMPS:SHP:1,2019-12-03T05:54:00,30.0600,-84.2910,10.0,3.33,336.26,4.9,'11111222,11111222,11111222' 
COMPS,ioos:station:USF.COMPS:SHP:1,2019-12-03T06:54:00,30.0600,-84.2910,10.0,2.44,354.58,3.13,'11111222,11111222,11111222' 
COMPS,ioos:station:USF.COMPS:SHP:1,2019-12-03T07:54:00,30.0600,-84.2910,10.0,2.76,340.29,4.31,'11111222,11111222,11111222' 
COMPS,ioos:station:USF.COMPS:SHP:1,2019-12-03T08:54:00,30.0600,-84.2910,10.0,3.13,338.17,4.7,'11111222,11111222,11111222' 
COMPS,ioos:station:USF.COMPS:SHP:1,2019-12-03T09:54:00,30.0600,-84.2910,10.0,1.51,343.35,2.54,'11111222,11111222,11111222' 
COMPS,ioos:station:USF.COMPS:SHP:1,2019-12-03T10:54:00,30.0600,-84.2910,10.0,1.69,331.07,2.45,'11111222,11111222,11111222' 
COMPS,ioos:station:USF.COMPS:SHP:1,2019-12-03T11:54:00,30.0600,-84.2910,10.0,2.12,312.61,2.94,'11111222,11111222,11111222' 
COMPS,ioos:station:USF.COMPS:SHP:1,2019-12-03T12:54:00,30.0600,-84.2910,10.0,2.67,305.44,4.31,'11111222,11111222,11111222' 
COMPS,ioos:station:USF.COMPS:SHP:1,2019-12-03T13:54:00,30.0600,-84.2910,10.0,3.34,329.31,4.5,'11111222,11111222,11111222' 
COMPS,ioos:station:USF.COMPS:SHP:1,2019-12-03T14:54:00,30.0600,-84.2910,10.0,3.37,332.53,4.6,'11111222,11111222,11111222' 
COMPS,ioos:station:USF.COMPS:SHP:1,2019-12-03T15:54:00,30.0600,-84.2910,10.0,3.78,307.63,5.29,'11111222,11111222,11111222' 
COMPS,ioos:station:USF.COMPS:SHP:1,2019-12-03T16:54:00,30.0600,-84.2910,10.0,2.05,251.0,3.82,'11111222,11111222,11111222' 
COMPS,ioos:station:USF.COMPS:SHP:1,2019-12-03T17:54:00,30.0600,-84.2910,10.0,3.07,194.15,4.01,'11111222,11111222,11111222' 
COMPS,ioos:station:USF.COMPS:SHP:1,2019-12-03T18:54:00,30.0600,-84.2910,10.0,3.04,200.3,4.31,'11111222,11111222,11111222' 
COMPS,ioos:station:USF.COMPS:SHP:1,2019-12-03T19:54:00,30.0600,-84.2910,10.0,6.08,202.56,7.44,'11111222,11111222,11111222' 
COMPS,ioos:station:USF.COMPS:SHP:1,2019-12-03T20:54:00,30.0600,-84.2910,10.0,5.32,220.89,6.17,'11111222,11111222,11111222' 
COMPS,ioos:station:USF.COMPS:SHP:1,2019-12-03T21:54:00,30.0600,-84.2910,10.0,4.35,221.36,5.19,'11111222,11111222,11111222' 
COMPS,ioos:station:USF.COMPS:SHP:1,2019-12-03T22:54:00,30.0600,-84.2910,10.0,3.23,278.39,4.9,'11111222,11111222,11111222' 
COMPS,ioos:station:USF.COMPS:SHP:1,2019-12-03T23:54:00,30.0600,-84.2910,10.0,5.07,272.48,6.85,'11111222,11111222,11111222' 
COMPS,ioos:station:USF.COMPS:SHP:1,2019-12-04T00:54:00,30.0600,-84.2910,10.0,4.25,278.18,5.87,'11111222,11111222,11111222' 
COMPS,ioos:station:USF.COMPS:SHP:1,2019-12-04T01:54:00,30.0600,-84.2910,10.0,3.53,307.24,5.58,'11111222,11111222,11111222' 
COMPS,ioos:station:USF.COMPS:SHP:1,2019-12-04T02:54:00,30.0600,-84.2910,10.0,2.85,309.7,4.21,'11111222,11111222,11111222' 
COMPS,ioos:station:USF.COMPS:SHP:1,2019-12-04T03:54:00,30.0600,-84.2910,10.0,3.05,310.94,4.5,'11111222,11111222,11111222' 
COMPS,ioos:station:USF.COMPS:SHP:1,2019-12-04T04:54:00,30.0600,-84.2910,10.0,3.13,314.28,4.11,'11111222,11111222,11111222' 
COMPS,ioos:station:USF.COMPS:SHP:1,2019-12-04T05:54:00,30.0600,-84.2910,10.0,3.54,305.39,5.29,'11111222,11111222,11111222' 
COMPS,ioos:station:USF.COMPS:SHP:1,2019-12-04T06:54:00,30.0600,-84.2910,10.0,3.13,311.18,4.9,'11111222,11111222,11111222' 
COMPS,ioos:station:USF.COMPS:SHP:1,2019-12-04T07:54:00,30.0600,-84.2910,10.0,3.55,303.91,4.9,'11111222,11111222,11111222' 
COMPS,ioos:station:USF.COMPS:SHP:1,2019-12-04T08:54:00,30.0600,-84.2910,10.0,2.62,326.29,3.62,'11111222,11111222,11111222' 
COMPS,ioos:station:USF.COMPS:SHP:1,2019-12-04T09:54:00,30.0600,-84.2910,10.0,2.69,318.78,4.41,'11111222,11111222,11111222' 
COMPS,ioos:station:USF.COMPS:SHP:1,2019-12-04T10:54:00,30.0600,-84.2910,10.0,2.82,321.44,3.82,'11111222,11111222,11111222' 
COMPS,ioos:station:USF.COMPS:SHP:1,2019-12-04T11:54:00,30.0600,-84.2910,10.0,2.28,299.02,4.01,'11111222,11111222,11111222' 
COMPS,ioos:station:USF.COMPS:SHP:1,2019-12-04T12:54:00,30.0600,-84.2910,10.0,2.85,312.56,4.21,'11111222,11111222,11111222' 
COMPS,ioos:station:USF.COMPS:SHP:1,2019-12-04T13:54:00,30.0600,-84.2910,10.0,3.55,310.81,4.7,'11111222,11111222,11111222' 
COMPS,ioos:station:USF.COMPS:SHP:1,2019-12-04T14:54:00,30.0600,-84.2910,10.0,3.02,304.94,4.21,'11111222,11111222,11111222' 
COMPS,ioos:station:USF.COMPS:SHP:1,2019-12-04T15:54:00,30.0600,-84.2910,10.0,3.94,329.92,5.58,'11111222,11111222,11111222' 
COMPS,ioos:station:USF.COMPS:SHP:1,2019-12-04T16:54:00,30.0600,-84.2910,10.0,4.15,319.4,5.97,'11111222,11111222,11111222' 
COMPS,ioos:station:USF.COMPS:SHP:1,2019-12-04T17:54:00,30.0600,-84.2910,10.0,3.02,291.6,4.9,'11111222,11111222,11111222' 
COMPS,ioos:station:USF.COMPS:SHP:1,2019-12-04T19:54:00,30.0600,-84.2910,10.0,3.51,288.29,4.9,'11111222,11111222,11111222' 
 
DISCLAIMER: The Gulf of Mexico Coastal and Ocean Observing (GCOOS) Data Portal aggregates data from the regional data providers for the convenience of all data users. Data published on this website should not be used for navigation or certain other uses as we cannot guarantee data accuracy or availability. The data and delivery services are provided 'as is' without warranty of any kind. Data Source: Gulf of Mexico Coastal Ocean Observing System Data Portal (http://data.gcoos.org/) 
